| time (UTC) | temp C | wind direction | speed KPH | gust KPH | rain 1hr cm | rain 24hr cm | rain mn cm | humidity % | barometer mb |
| 20260505121800 | 7 | 283 | 4.8 | 9.7 | 0.00 | 0.00 | 0.00 | 50 | 1008.7 |
| 20260505121253 | 7 | 221 | 6.4 | 9.7 | 0.00 | 0.00 | 0.00 | 50 | 1008.9 |
| 20260505120747 | 7 | 234 | 6.4 | 9.7 | 0.00 | 0.00 | 0.00 | 51 | 1008.9 |
| 20260505120502 | 7 | 182 | 3.2 | 6.4 | 0.00 | 0.00 | 0.00 | 52 | 1008.3 |
| 20260505115727 | 7 | 212 | 3.2 | 6.4 | 0.00 | 0.00 | 0.00 | 52 | 1007.8 |
| 20260505115227 | 7 | 233 | 3.2 | 6.4 | 0.00 | 0.00 | 0.00 | 49 | 1007.4 |
| 20260505114728 | 7 | 326 | 3.2 | 4.8 | 0.00 | 0.00 | 0.00 | 51 | 1007.2 |
| 20260505114228 | 7 | 241 | 3.2 | 6.4 | 0.00 | 0.00 | 0.00 | 51 | 1007.1 |
| 20260505113728 | 7 | 342 | 3.2 | 6.4 | 0.00 | 0.00 | 0.00 | 50 | 1006.9 |
| 20260505113710 | 7 | 350 | 3.2 | 4.8 | 0.00 | 0.00 | 0.00 | 50 | 1006.7 |
| 20260505112949 | 7 | 333 | 3.2 | 4.8 | 0.00 | 0.00 | 0.00 | 50 | 1006.9 |
| 20260505112228 | 7 | 339 | 1.6 | 4.8 | 0.00 | 0.00 | 0.00 | 51 | 1007.1 |
| 20260505111728 | 7 | 259 | 3.2 | 6.4 | 0.00 | 0.00 | 0.00 | 51 | 1007.3 |
| 20260505111215 | 7 | 292 | 3.2 | 6.4 | 0.00 | 0.00 | 0.00 | 51 | 1007.3 |
| 20260505110715 | 7 | 243 | 3.2 | 8.0 | 0.00 | 0.00 | 0.00 | 50 | 1007.4 |
| 20260505110200 | 7 | 289 | 3.2 | 8.0 | 0.00 | 0.00 | 0.00 | 49 | 1007.3 |
| 20260505102143 | 8 | 295 | 4.8 | 12.9 | 0.00 | 0.00 | 0.00 | 47 | 1006.3 |
| 20260505101642 | 8 | 197 | 6.4 | 17.7 | 0.00 | 0.00 | 0.00 | 48 | 1006.4 |
| 20260505101143 | 8 | 272 | 6.4 | 17.7 | 0.00 | 0.00 | 0.00 | 46 | 1006.4 |
| 20260505100644 | 8 | 314 | 6.4 | 14.5 | 0.00 | 0.00 | 0.00 | 46 | 1006.1 |
| 20260505100142 | 8 | 288 | 6.4 | 14.5 | 0.00 | 0.00 | 0.00 | 46 | 1005.9 |
| 20260505095645 | 8 | 306 | 6.4 | 14.5 | 0.00 | 0.00 | 0.00 | 45 | 1005.9 |
| 20260505095403 | 8 | 298 | 4.8 | 9.7 | 0.00 | 0.00 | 0.00 | 46 | 1006.0 |
| 20260505094908 | 8 | 250 | 6.4 | 11.3 | 0.00 | 0.00 | 0.00 | 46 | 1006.1 |
| 20260505094137 | 8 | 311 | 6.4 | 11.3 | 0.00 | 0.00 | 0.00 | 47 | 1006.1 |
| 20260505093631 | 8 | 321 | 4.8 | 9.7 | 0.00 | 0.00 | 0.00 | 47 | 1006.1 |
| 20260505093131 | 8 | 280 | 4.8 | 11.3 | 0.00 | 0.00 | 0.00 | 48 | 1006.2 |
| 20260505092631 | 8 | 295 | 6.4 | 11.3 | 0.00 | 0.00 | 0.00 | 48 | 1006.2 |
| 20260505092131 | 8 | 319 | 4.8 | 11.3 | 0.00 | 0.00 | 0.00 | 48 | 1006.2 |
| 20260505092114 | 8 | 285 | 4.8 | 9.7 | 0.00 | 0.00 | 0.00 | 49 | 1006.1 |
| 20260505091131 | 8 | 200 | 4.8 | 9.7 | 0.00 | 0.00 | 0.00 | 49 | 1006.0 |
| 20260505090630 | 8 | 338 | 4.8 | 11.3 | 0.00 | 0.00 | 0.00 | 48 | 1005.8 |
| 20260505090130 | 8 | 298 | 4.8 | 12.9 | 0.00 | 0.00 | 0.00 | 48 | 1005.6 |
| 20260505085631 | 8 | 133 | 6.4 | 12.9 | 0.00 | 0.00 | 0.00 | 47 | 1005.4 |
| 20260505085132 | 8 | 300 | 4.8 | 9.7 | 0.00 | 0.00 | 0.00 | 47 | 1005.3 |
| 20260505084632 | 8 | 325 | 4.8 | 12.9 | 0.00 | 0.00 | 0.00 | 48 | 1005.2 |
| 20260505084131 | 8 | 317 | 6.4 | 12.9 | 0.00 | 0.00 | 0.00 | 49 | 1005.2 |
| 20260505083631 | 8 | 322 | 6.4 | 9.7 | 0.00 | 0.00 | 0.00 | 47 | 1005.1 |
| 20260505083128 | 9 | 310 | 4.8 | 11.3 | 0.00 | 0.00 | 0.00 | 47 | 1005.2 |
| 20260505082619 | 9 | 315 | 6.4 | 14.5 | 0.00 | 0.00 | 0.00 | 48 | 1005.0 |
| 20260505082343 | 9 | 273 | 8.0 | 14.5 | 0.00 | 0.00 | 0.00 | 47 | 1004.8 |
| 20260505081621 | 9 | 330 | 6.4 | 14.5 | 0.00 | 0.00 | 0.00 | 48 | 1004.7 |
| 20260505081120 | 9 | 325 | 6.4 | 14.5 | 0.00 | 0.00 | 0.00 | 48 | 1004.5 |
| 20260505080620 | 9 | 329 | 6.4 | 14.5 | 0.00 | 0.00 | 0.00 | 48 | 1004.4 |
| 20260505080121 | 10 | 310 | 6.4 | 14.5 | 0.00 | 0.00 | 0.00 | 48 | 1004.1 |
| 20260505075621 | 10 | 13 | 6.4 | 14.5 | 0.00 | 0.00 | 0.00 | 48 | 1004.0 |
| 20260505075121 | 10 | 19 | 6.4 | 14.5 | 0.00 | 0.00 | 0.00 | 49 | 1003.9 |
| 20260505074621 | 10 | 332 | 6.4 | 16.1 | 0.00 | 0.00 | 0.00 | 48 | 1003.9 |
| 20260505074121 | 10 | 215 | 8.0 | 17.7 | 0.00 | 0.00 | 0.00 | 47 | 1003.9 |
| 20260505073841 | 10 | 341 | 9.7 | 17.7 | 0.00 | 0.00 | 0.00 | 47 | 1003.9 |
| 20260505073115 | 10 | 316 | 9.7 | 19.3 | 0.00 | 0.00 | 0.00 | 47 | 1003.8 |
| 20260505072615 | 10 | 324 | 9.7 | 20.9 | 0.00 | 0.00 | 0.00 | 46 | 1003.8 |
| 20260505072116 | 10 | 304 | 8.0 | 20.9 | 0.00 | 0.00 | 0.00 | 47 | 1003.8 |
| 20260505071616 | 11 | 315 | 8.0 | 17.7 | 0.00 | 0.00 | 0.00 | 47 | 1003.8 |
| 20260505071111 | 11 | 312 | 8.0 | 20.9 | 0.00 | 0.00 | 0.00 | 47 | 1003.8 |
| 20260505070615 | 11 | 276 | 8.0 | 20.9 | 0.00 | 0.00 | 0.00 | 47 | 1003.8 |
| 20260505070113 | 11 | 272 | 8.0 | 19.3 | 0.00 | 0.00 | 0.00 | 47 | 1003.5 |
| 20260505065839 | 11 | 299 | 8.0 | 17.7 | 0.00 | 0.00 | 0.00 | 46 | 1003.4 |
| 20260505065113 | 11 | 316 | 6.4 | 17.7 | 0.00 | 0.00 | 0.00 | 46 | 1003.3 |
| 20260505064614 | 11 | 309 | 8.0 | 17.7 | 0.00 | 0.00 | 0.00 | 46 | 1003.2 |
| 20260505064113 | 11 | 294 | 9.7 | 19.3 | 0.00 | 0.00 | 0.00 | 46 | 1003.1 |
| 20260505063613 | 11 | 355 | 9.7 | 19.3 | 0.00 | 0.00 | 0.00 | 45 | 1003.0 |
| 20260505063114 | 12 | 332 | 9.7 | 17.7 | 0.00 | 0.00 | 0.00 | 46 | 1003.0 |
| 20260505062614 | 12 | 317 | 9.7 | 17.7 | 0.00 | 0.00 | 0.00 | 45 | 1002.9 |
| 20260505062113 | 12 | 335 | 8.0 | 16.1 | 0.00 | 0.00 | 0.00 | 46 | 1002.9 |
| 20260505061614 | 12 | 330 | 8.0 | 16.1 | 0.00 | 0.00 | 0.00 | 45 | 1002.8 |
| 20260505061338 | 12 | 295 | 9.7 | 19.3 | 0.00 | 0.00 | 0.00 | 45 | 1002.8 |
| 20260505060608 | 12 | 317 | 9.7 | 19.3 | 0.00 | 0.00 | 0.00 | 44 | 1002.9 |
| 20260505060108 | 13 | 302 | 9.7 | 25.7 | 0.00 | 0.00 | 0.00 | 44 | 1002.9 |
| 20260505060044 | 13 | 278 | 11.3 | 25.7 | 0.00 | 0.00 | 0.00 | 44 | 1003.0 |
| 20260505055108 | 13 | 325 | 9.7 | 19.3 | 0.00 | 0.00 | 0.00 | 43 | 1002.8 |
| 20260505054608 | 13 | 310 | 8.0 | 19.3 | 0.00 | 0.00 | 0.00 | 43 | 1002.8 |
| 20260505054334 | 13 | 303 | 8.0 | 14.5 | 0.00 | 0.00 | 0.00 | 43 | 1002.7 |
| 20260505053608 | 13 | 295 | 6.4 | 14.5 | 0.00 | 0.00 | 0.00 | 43 | 1002.5 |
| 20260505053110 | 14 | 254 | 8.0 | 16.1 | 0.00 | 0.00 | 0.00 | 42 | 1002.4 |
| 20260505052108 | 14 | 316 | 8.0 | 22.5 | 0.00 | 0.00 | 0.00 | 40 | 1002.0 |
| 20260505051609 | 14 | 316 | 8.0 | 22.5 | 0.00 | 0.00 | 0.00 | 40 | 1002.0 |
| 20260505051328 | 15 | 310 | 8.0 | 16.1 | 0.00 | 0.00 | 0.00 | 38 | 1001.6 |
| 20260505050603 | 15 | 324 | 8.0 | 16.1 | 0.00 | 0.00 | 0.00 | 38 | 1001.4 |
| 20260505050105 | 15 | 325 | 8.0 | 16.1 | 0.00 | 0.00 | 0.00 | 38 | 1001.5 |
| 20260505041604 | 16 | 247 | 11.3 | 24.1 | 0.00 | 0.00 | 0.00 | 35 | 1000.7 |
| 20260505041546 | 16 | 337 | 9.7 | 24.1 | 0.00 | 0.00 | 0.00 | 34 | 1000.6 |
| 20260505040559 | 16 | 241 | 9.7 | 19.3 | 0.00 | 0.00 | 0.00 | 34 | 1000.4 |
| 20260505040059 | 16 | 296 | 9.7 | 19.3 | 0.00 | 0.00 | 0.00 | 34 | 1000.3 |
| 20260505035558 | 16 | 220 | 8.0 | 22.5 | 0.00 | 0.00 | 0.00 | 34 | 1000.3 |
| 20260505035058 | 17 | 227 | 8.0 | 22.5 | 0.00 | 0.00 | 0.00 | 34 | 1000.3 |
| 20260505034559 | 17 | 293 | 8.0 | 19.3 | 0.00 | 0.00 | 0.00 | 34 | 1000.4 |
| 20260505034058 | 17 | 253 | 9.7 | 25.7 | 0.00 | 0.00 | 0.00 | 34 | 1000.4 |
| 20260505033558 | 17 | 271 | 9.7 | 25.7 | 0.00 | 0.00 | 0.00 | 33 | 1000.3 |
| 20260505033059 | 17 | 303 | 8.0 | 16.1 | 0.00 | 0.00 | 0.00 | 33 | 1000.4 |
| 20260505032559 | 17 | 270 | 6.4 | 14.5 | 0.00 | 0.00 | 0.00 | 33 | 1000.4 |
| 20260505032059 | 17 | 281 | 6.4 | 14.5 | 0.00 | 0.00 | 0.00 | 34 | 1000.4 |
| 20260505031820 | 17 | 266 | 6.4 | 19.3 | 0.00 | 0.00 | 0.00 | 35 | 1000.5 |
| 20260505031055 | 17 | 313 | 4.8 | 19.3 | 0.00 | 0.00 | 0.00 | 35 | 1000.2 |
| 20260505030555 | 17 | 246 | 6.4 | 17.7 | 0.00 | 0.00 | 0.00 | 35 | 1000.1 |
| 20260505030054 | 17 | 218 | 8.0 | 20.9 | 0.00 | 0.00 | 0.00 | 34 | 1000.0 |
| 20260505025555 | 18 | 270 | 9.7 | 24.1 | 0.00 | 0.00 | 0.00 | 35 | 999.8 |
| 20260505025054 | 18 | 296 | 9.7 | 24.1 | 0.00 | 0.00 | 0.00 | 33 | 999.8 |
| 20260505024556 | 18 | 282 | 8.0 | 16.1 | 0.00 | 0.00 | 0.00 | 34 | 999.7 |
| 20260505024055 | 18 | 259 | 8.0 | 16.1 | 0.00 | 0.00 | 0.00 | 36 | 999.8 |
| 20260505023820 | 18 | 342 | 9.7 | 24.1 | 0.00 | 0.00 | 0.00 | 37 | 999.6 |
| 20260505023056 | 18 | 324 | 11.3 | 24.1 | 0.00 | 0.00 | 0.00 | 36 | 999.6 |
| 20260505022556 | 18 | 306 | 9.7 | 19.3 | 0.00 | 0.00 | 0.00 | 37 | 999.4 |
| 20260505022056 | 18 | 299 | 8.0 | 17.7 | 0.00 | 0.00 | 0.00 | 39 | 999.3 |
| 20260505021825 | 19 | 250 | 9.7 | 22.5 | 0.00 | 0.00 | 0.00 | 38 | 999.2 |
| 20260505021055 | 19 | 240 | 11.3 | 22.5 | 0.00 | 0.00 | 0.00 | 38 | 999.2 |
| 20260505020815 | 19 | 271 | 9.7 | 22.5 | 0.00 | 0.00 | 0.00 | 37 | 999.0 |
| 20260505020318 | 19 | 286 | 8.0 | 17.7 | 0.00 | 0.00 | 0.00 | 37 | 999.0 |
| 20260505015554 | 20 | 254 | 8.0 | 19.3 | 0.00 | 0.00 | 0.00 | 37 | 998.9 |
| 20260505015056 | 20 | 287 | 8.0 | 19.3 | 0.00 | 0.00 | 0.00 | 37 | 998.8 |
| 20260505014555 | 20 | 308 | 8.0 | 16.1 | 0.00 | 0.00 | 0.00 | 37 | 998.6 |
| 20260505014056 | 20 | 271 | 6.4 | 16.1 | 0.00 | 0.00 | 0.00 | 37 | 998.5 |
| 20260505013555 | 20 | 331 | 8.0 | 17.7 | 0.00 | 0.00 | 0.00 | 37 | 998.2 |
| 20260505013054 | 20 | 307 | 9.7 | 20.9 | 0.00 | 0.00 | 0.00 | 36 | 998.0 |
| 20260505012554 | 21 | 298 | 8.0 | 20.9 | 0.00 | 0.00 | 0.00 | 37 | 997.7 |
| 20260505012054 | 21 | 300 | 6.4 | 19.3 | 0.00 | 0.00 | 0.00 | 38 | 997.4 |
| 20260505011554 | 21 | 327 | 6.4 | 16.1 | 0.00 | 0.00 | 0.00 | 39 | 997.1 |
| 20260505011051 | 21 | 305 | 8.0 | 17.7 | 0.00 | 0.00 | 0.00 | 39 | 997.0 |
| 20260505010549 | 21 | 309 | 6.4 | 17.7 | 0.00 | 0.00 | 0.00 | 39 | 996.9 |
| 20260505010048 | 22 | 277 | 6.4 | 16.1 | 0.00 | 0.00 | 0.00 | 39 | 996.8 |
| 20260505005550 | 22 | 330 | 6.4 | 17.7 | 0.00 | 0.00 | 0.00 | 39 | 996.8 |
| 20260505005050 | 22 | 310 | 8.0 | 24.1 | 0.00 | 0.00 | 0.00 | 39 | 996.7 |
| 20260505004549 | 22 | 245 | 11.3 | 24.1 | 0.00 | 0.00 | 0.00 | 39 | 996.5 |
| 20260505004049 | 23 | 262 | 11.3 | 22.5 | 0.00 | 0.00 | 0.00 | 38 | 996.3 |
| 20260505003550 | 23 | 325 | 9.7 | 22.5 | 0.00 | 0.00 | 0.00 | 37 | 996.0 |
| 20260505003533 | 23 | 300 | 8.0 | 22.5 | 0.00 | 0.00 | 0.00 | 36 | 995.8 |
| 20260505002552 | 23 | 245 | 6.4 | 14.5 | 0.00 | 0.00 | 0.00 | 36 | 995.6 |
| 20260505002050 | 23 | 225 | 6.4 | 14.5 | 0.00 | 0.00 | 0.00 | 36 | 995.5 |
| 20260505001546 | 23 | 233 | 6.4 | 12.9 | 0.00 | 0.00 | 0.00 | 36 | 995.4 |
| 20260505001046 | 23 | 265 | 6.4 | 14.5 | 0.00 | 0.00 | 0.00 | 35 | 995.5 |
| 20260505000544 | 23 | 244 | 6.4 | 14.5 | 0.00 | 0.00 | 0.00 | 35 | 995.5 |
| 20260505000039 | 23 | 264 | 6.4 | 12.9 | 0.00 | 0.00 | 0.00 | 34 | 995.4 |
| 20260504235804 | 24 | 170 | 8.0 | 22.5 | 0.00 | 0.00 | 0.00 | 34 | 995.4 |
| 20260504235041 | 24 | 220 | 9.7 | 22.5 | 0.00 | 0.00 | 0.00 | 34 | 995.6 |
| 20260504234540 | 24 | 256 | 8.0 | 14.5 | 0.00 | 0.00 | 0.00 | 34 | 995.6 |
| 20260504234041 | 24 | 227 | 9.7 | 24.1 | 0.00 | 0.00 | 0.00 | 34 | 995.7 |
| 20260504233540 | 24 | 174 | 14.5 | 29.0 | 0.00 | 0.00 | 0.00 | 33 | 995.6 |
| 20260504233041 | 25 | 214 | 14.5 | 29.0 | 0.00 | 0.00 | 0.00 | 33 | 995.8 |
| 20260504232542 | 25 | 222 | 12.9 | 22.5 | 0.00 | 0.00 | 0.00 | 33 | 996.1 |
| 20260504232039 | 25 | 225 | 11.3 | 25.7 | 0.00 | 0.00 | 0.00 | 32 | 995.4 |
| 20260504231539 | 25 | 231 | 11.3 | 25.7 | 0.00 | 0.00 | 0.00 | 33 | 995.8 |
| 20260504231300 | 25 | 207 | 11.3 | 24.1 | 0.00 | 0.00 | 0.00 | 32 | 995.8 |
| 20260504230805 | 25 | 289 | 11.3 | 24.1 | 0.00 | 0.00 | 0.00 | 32 | 995.9 |
| 20260504230259 | 25 | 230 | 9.7 | 19.3 | 0.00 | 0.00 | 0.00 | 33 | 995.9 |
| 20260504225534 | 25 | 298 | 9.7 | 24.1 | 0.00 | 0.00 | 0.00 | 33 | 995.9 |
| 20260504225035 | 25 | 218 | 9.7 | 24.1 | 0.00 | 0.00 | 0.00 | 33 | 995.9 |
| 20260504224536 | 25 | 186 | 9.7 | 22.5 | 0.00 | 0.00 | 0.00 | 33 | 996.0 |
| 20260504224036 | 26 | 222 | 12.9 | 24.1 | 0.00 | 0.00 | 0.00 | 32 | 995.9 |
| 20260504223536 | 26 | 223 | 11.3 | 24.1 | 0.00 | 0.00 | 0.00 | 31 | 995.9 |
| 20260504223035 | 26 | 270 | 9.7 | 20.9 | 0.00 | 0.00 | 0.00 | 32 | 995.9 |
| 20260504222535 | 26 | 236 | 11.3 | 20.9 | 0.00 | 0.00 | 0.00 | 32 | 996.0 |
| 20260504222036 | 26 | 207 | 11.3 | 24.1 | 0.00 | 0.00 | 0.00 | 31 | 996.0 |
| 20260504221535 | 26 | 208 | 12.9 | 24.1 | 0.00 | 0.00 | 0.00 | 31 | 996.0 |
| 20260504221302 | 26 | 243 | 12.9 | 24.1 | 0.00 | 0.00 | 0.00 | 31 | 996.1 |
| 20260504220537 | 26 | 208 | 12.9 | 22.5 | 0.00 | 0.00 | 0.00 | 30 | 996.0 |
| 20260504220036 | 26 | 225 | 11.3 | 22.5 | 0.00 | 0.00 | 0.00 | 29 | 996.0 |
| 20260504215535 | 26 | 258 | 12.9 | 29.0 | 0.00 | 0.00 | 0.00 | 30 | 996.1 |
| 20260504215034 | 26 | 221 | 14.5 | 29.0 | 0.00 | 0.00 | 0.00 | 30 | 996.3 |
| 20260504214534 | 26 | 239 | 14.5 | 25.7 | 0.00 | 0.00 | 0.00 | 29 | 996.2 |
| 20260504214258 | 26 | 250 | 14.5 | 30.6 | 0.00 | 0.00 | 0.00 | 29 | 996.3 |
| 20260504213535 | 26 | 224 | 14.5 | 30.6 | 0.00 | 0.00 | 0.00 | 29 | 996.2 |
| 20260504213035 | 26 | 237 | 14.5 | 33.8 | 0.00 | 0.00 | 0.00 | 29 | 996.3 |
| 20260504212535 | 26 | 258 | 16.1 | 33.8 | 0.00 | 0.00 | 0.00 | 28 | 996.5 |
| 20260504212035 | 26 | 277 | 14.5 | 30.6 | 0.00 | 0.00 | 0.00 | 28 | 996.5 |
| 20260504211756 | 26 | 247 | 14.5 | 27.4 | 0.00 | 0.00 | 0.00 | 30 | 996.3 |
| 20260504211030 | 26 | 255 | 11.3 | 27.4 | 0.00 | 0.00 | 0.00 | 31 | 996.6 |
| 20260504210529 | 26 | 204 | 9.7 | 30.6 | 0.00 | 0.00 | 0.00 | 32 | 996.7 |
| 20260504210025 | 25 | 247 | 11.3 | 30.6 | 0.00 | 0.00 | 0.00 | 31 | 996.7 |
| 20260504205758 | 26 | 260 | 14.5 | 30.6 | 0.00 | 0.00 | 0.00 | 31 | 996.8 |
| 20260504205025 | 26 | 258 | 14.5 | 30.6 | 0.00 | 0.00 | 0.00 | 30 | 996.7 |
| 20260504204525 | 26 | 270 | 9.7 | 17.7 | 0.00 | 0.00 | 0.00 | 31 | 996.7 |
| 20260504204256 | 26 | 299 | 11.3 | 20.9 | 0.00 | 0.00 | 0.00 | 30 | 996.7 |
| 20260504203526 | 26 | 223 | 12.9 | 24.1 | 0.00 | 0.00 | 0.00 | 30 | 997.0 |
| 20260504203246 | 26 | 268 | 12.9 | 24.1 | 0.00 | 0.00 | 0.00 | 30 | 997.1 |
| 20260504202526 | 25 | 263 | 11.3 | 24.1 | 0.00 | 0.00 | 0.00 | 30 | 997.0 |
| 20260504202027 | 25 | 180 | 12.9 | 24.1 | 0.00 | 0.00 | 0.00 | 30 | 997.0 |
| 20260504201748 | 25 | 224 | 14.5 | 29.0 | 0.00 | 0.00 | 0.00 | 30 | 997.3 |
| 20260504201024 | 25 | 312 | 16.1 | 29.0 | 0.00 | 0.00 | 0.00 | 30 | 997.3 |
| 20260504200521 | 25 | 254 | 14.5 | 29.0 | 0.00 | 0.00 | 0.00 | 29 | 997.5 |
| 20260504200019 | 25 | 279 | 11.3 | 22.5 | 0.00 | 0.00 | 0.00 | 30 | 997.4 |
| 20260504200007 | 25 | 209 | 14.5 | 24.1 | 0.00 | 0.00 | 0.00 | 30 | 997.6 |
| 20260504195022 | 25 | 245 | 14.5 | 29.0 | 0.00 | 0.00 | 0.00 | 29 | 997.5 |
| 20260504194520 | 25 | 281 | 12.9 | 29.0 | 0.00 | 0.00 | 0.00 | 29 | 997.5 |
| 20260504194020 | 25 | 210 | 11.3 | 25.7 | 0.00 | 0.00 | 0.00 | 30 | 997.6 |
| 20260504193520 | 25 | 269 | 11.3 | 20.9 | 0.00 | 0.00 | 0.00 | 30 | 997.6 |
| 20260504193020 | 25 | 263 | 11.3 | 22.5 | 0.00 | 0.03 | 0.00 | 30 | 997.4 |
| 20260504192520 | 25 | 251 | 11.3 | 22.5 | 0.00 | 0.03 | 0.00 | 29 | 997.6 |
| 20260504192021 | 25 | 205 | 11.3 | 25.7 | 0.00 | 0.03 | 0.00 | 30 | 997.6 |
| 20260504191521 | 25 | 221 | 11.3 | 25.7 | 0.00 | 0.03 | 0.00 | 29 | 997.7 |
| 20260504191021 | 25 | 174 | 11.3 | 20.9 | 0.00 | 0.03 | 0.00 | 30 | 997.7 |
| 20260504190737 | 25 | 242 | 11.3 | 25.7 | 0.00 | 0.03 | 0.00 | 31 | 997.5 |
| 20260504190019 | 25 | 282 | 11.3 | 25.7 | 0.00 | 0.03 | 0.00 | 30 | 997.7 |
| 20260504185520 | 25 | 101 | 11.3 | 22.5 | 0.00 | 0.03 | 0.00 | 31 | 997.7 |
| 20260504185015 | 25 | 223 | 11.3 | 22.5 | 0.00 | 0.03 | 0.00 | 30 | 997.8 |
| 20260504184517 | 25 | 215 | 12.9 | 20.9 | 0.00 | 0.03 | 0.00 | 30 | 997.8 |
| 20260504184015 | 24 | 262 | 11.3 | 20.9 | 0.00 | 0.03 | 0.00 | 31 | 997.8 |
| 20260504183515 | 24 | 175 | 9.7 | 20.9 | 0.00 | 0.03 | 0.00 | 31 | 997.9 |
| 20260504183016 | 24 | 254 | 12.9 | 24.1 | 0.00 | 0.03 | 0.00 | 31 | 997.9 |
| 20260504182515 | 24 | 219 | 12.9 | 25.7 | 0.00 | 0.03 | 0.00 | 31 | 997.8 |
| 20260504182015 | 24 | 222 | 12.9 | 25.7 | 0.00 | 0.03 | 0.00 | 30 | 998.0 |
| 20260504181515 | 24 | 279 | 12.9 | 24.1 | 0.00 | 0.03 | 0.00 | 31 | 998.0 |
| 20260504181013 | 23 | 225 | 12.9 | 24.1 | 0.00 | 0.03 | 0.00 | 31 | 998.1 |
| 20260504180510 | 24 | 189 | 12.9 | 24.1 | 0.00 | 0.03 | 0.00 | 29 | 998.0 |
| 20260504180232 | 24 | 177 | 12.9 | 27.4 | 0.00 | 0.03 | 0.00 | 31 | 998.1 |
| 20260504175730 | 23 | 255 | 12.9 | 27.4 | 0.00 | 0.03 | 0.00 | 31 | 997.8 |
| 20260504175009 | 23 | 248 | 11.3 | 24.1 | 0.00 | 0.03 | 0.00 | 30 | 998.1 |
| 20260504174729 | 23 | 189 | 11.3 | 25.7 | 0.00 | 0.03 | 0.00 | 31 | 998.1 |
| 20260504174008 | 23 | 235 | 12.9 | 25.7 | 0.00 | 0.03 | 0.00 | 31 | 998.2 |
| 20260504173727 | 23 | 226 | 14.5 | 24.1 | 0.00 | 0.03 | 0.00 | 30 | 998.4 |
| 20260504173008 | 23 | 220 | 12.9 | 24.1 | 0.00 | 0.03 | 0.00 | 31 | 998.4 |
| 20260504172509 | 23 | 211 | 12.9 | 24.1 | 0.00 | 0.03 | 0.00 | 30 | 998.6 |
| 20260504172228 | 23 | 223 | 12.9 | 24.1 | 0.00 | 0.03 | 0.00 | 30 | 998.5 |
| 20260504171954 | 23 | 205 | 12.9 | 24.1 | 0.00 | 0.03 | 0.00 | 30 | 998.6 |
| 20260504171008 | 23 | 247 | 12.9 | 25.7 | 0.00 | 0.03 | 0.00 | 30 | 998.6 |
| 20260504170509 | 23 | 174 | 12.9 | 25.7 | 0.00 | 0.03 | 0.00 | 31 | 998.8 |
| 20260504151001 | 21 | 267 | 11.3 | 33.8 | 0.00 | 0.03 | 0.00 | 32 | 1000.3 |
| 20260504150723 | 21 | 234 | 9.7 | 33.8 | 0.00 | 0.03 | 0.00 | 35 | 1000.1 |
| 20260504141003 | 19 | 208 | 9.7 | 20.9 | 0.00 | 0.03 | 0.00 | 41 | 1001.0 |
| 20260504140456 | 18 | 211 | 11.3 | 20.9 | 0.00 | 0.03 | 0.00 | 42 | 1001.1 |
| 20260504130456 | 16 | 247 | 8.0 | 16.1 | 0.00 | 0.03 | 0.00 | 49 | 1001.6 |